Погода Бирилюссы

Погода Бирилюссы : погода сейчас, прогноз погоды и архив. Всё, что Вы хотите узнать о погоде Бирилюссы!

Поиск расширенной информации на нашем сайте:

Другие новости

Новости СМИ2

Главная страница сайта

Новости сайта

03.07.2017

Напоминаем, что на нашем специализированном сайте Метеоцентр.Азия вы можете получить высокодетализированные автоматические прогнозы погоды по пунктам России, СНГ и мира в авиационном формате (включающие направление и скорость ветра, видимость, явления погоды, количество и форму облачности, нижнюю и верхнюю границу облачности).


Погода Бирилюссы - сегодня

Время (UTC), дата Ветер
(°,м/с) 
Видим.   Явления Облачность Т
(°С)
Тd
(°С)
f(%) Тe
(°С)
Pmin
(гПа)
dP
(гПа)
Po
(мм)
O2
(г/м3)
Тmin Tmax R s Состояние
почвы
03 16.04.18 190 (Ю) н/о    н/о 
+4.1 -5.2 51 +3  1005.9  -0.5  738  293           
06 16.04.18 210 (ЮЗ) 3{10}  н/о    н/о 
+3.9 -0.6 72 +3  1005.6  -0.3  738  293           
09 16.04.18 240 (ЮЗ) 3{10}  н/о    н/о 
+6.3 -1.5 57 +5  1004.1  -1.3  737  290           
12 16.04.18 210 (ЮЗ) 1-2  н/о    н/о 
+6.2 -1.7 57 +7  1002.9  -1.1  736  290    +6.7  0.0     
15 16.04.18 230 (ЮЗ) н/о    н/о 
+6.9 -2.5 51 +7  1001.6  -1.3  735  289           
18 16.04.18 230 (ЮЗ) 4{10}  н/о    н/о 
+7.5 -5.3 40 +6  1000  -1.5  734  288           
00 17.04.18 220 (ЮЗ) 5-12{12}  н/о    н/о 
+4.5 -2.5 60 +2  1000.1  0.6  734  291  +4.1         
03 17.04.18 220 (ЮЗ) 4{15}  н/о    н/о 
+2.5 -2 72 1002.5  2.1  735  294  +0.7         
06 17.04.18 260 (З) 4-11{12}  н/о    н/о 
+2.2 -9.2 43 1005.1  2.5  737  296           
09 17.04.18 240 (ЮЗ) 4-10{11}  н/о    н/о 
+3 -11.7 33 +1  1006.2  1.1  738  295           
12 17.04.18 300 (СЗ) 4-10{11}  н/о    н/о 
-0.9 -4 79 -3  1008  1.5  739  299    +4.5  0.3     
15 17.04.18 240 (ЮЗ) 2{10}  н/о    н/о 
-3.2 -4.6 90 -4  1010.1  1.8  740  302           
18 17.04.18 240 (ЮЗ) н/о    н/о 
-3.9 -6.1 85 -6  1012.1  1.9  742  304           
21 17.04.18 240 (ЮЗ) н/о    н/о 
-5.1 -6.3 91 -5  1014.1  1.8  743  306           
00 18.04.18 280 (З) 2-4  н/о    н/о 
-5.6 -12.6 58 -7  1016.4  2.3  745  308  -6.4    0.6  равномерный
сухой снег
100% 
03 18.04.18 270 (З) н/о    н/о 
-3.3 -13.1 47 -5  1018.1  1.8  746  306           
06 18.04.18 260 (З) 5{10}  н/о    н/о 
-1.8 -13.8 39 -5  1019  747  304           
09 18.04.18 270 (З) 3{10}  н/о    н/о 
-1.1 -14.5 35 -3  1019.5  0.5  747  304           
12 18.04.18 260 (З) 2-5  н/о    н/о 
-1.7 -14 38 -3  1019.8  0.3  748  304    +0.1       
15 18.04.18 280 (З) н/о    н/о 
-3.5 -13.1 47 -3  1021  748  307           
18 18.04.18 260 (З) н/о    н/о 
-6 -12.9 58 -6  1021.8  0.6  749  310           
21 18.04.18 тихо ()   н/о    н/о 
-8.9 -11.2 83 -9  1022.3  0.2  749  313           
03 19.04.18 240 (ЮЗ) н/о    н/о 
-2.3 -12 47 -3  1022.3  -0.2  749  306           
06 19.04.18 230 (ЮЗ) н/о    н/о 
-0.1 -12.4 39 -2  1021.1  -1  749  303           
09 19.04.18 230 (ЮЗ) н/о    н/о 
+1.2 -12.6 35 +1  1019.7  -1.2  748  301           
Время (UTC), дата Ветер
(°,м/с) 
Видим.   Явления Облачность Т
(°С)
Тd
(°С)
f(%) Тe
(°С)
Pmin
(гПа)
dP
(гПа)
Po
(мм)
O2
(г/м3)
Тmin Tmax R s Состояние
почвы

Для получения пояснительной информации подведите курсор к названию столбца.

ПОГОДА Бирилюссы - архив

Всё, что Вы хотите узнать о погоде Бирилюссы - удобно и подробно!

Выберите нужную дату (начиная с 1 января 2015* года) и нажмите кнопку "Найти".
Будут отображены архивные сводки погоды по пункту Бирилюссы, начиная с указанной даты.


Отображать данные в формате CSV (для использования в таблицах Excel)


Внимание! Наш архив погоды предназначен исключительно для личного некоммерческого использования в познавательных целях. Если Вам необходимы официальные справки о состоянии погоды (для производственных, юридических, коммерческих и т.п. целей), обращайтесь в органы Росгидромета.

*Примечание: данная дата относится к архиву по метеостанциям СССР (Россия, СНГ, Балтия).
Архив по метеостанциям Зарубежной Европы и Азии (кроме Китая) хранится 10 дней, по другим регионам земного шара (Китай, Африка, Америка, Австралия, Океания) - 1 день.

Бирилюссы - район местоположения метеостанции


Название, широта, долгота, высота метеостанции:
Бирилюссы 57.1°ш. 90.7°д. 182 м над ур. моря [Российская Федерация]

Дополнительная информация

В oтличие oт бoльшинства пoгoдных сайтoв мы публикуем пoдрoбную метеoинфoрмацию в детальнoм прoфессиoнальнoм фoрмате.

Характеристики температуры и влажнoсти вoздуха измеряются на высoте 2 м в тени вдали oт зданий и деревьев.
Скoрoсть ветра измеряется на высoте 10 м (на урoвне рoста челoвека скoрoсть ветра ниже в 1.5-2 раза). Если метеoстанция нахoдится в гoрoде или в лесу, тo скoрoсть ветра занижена на 2-4 м/с пo сравнению с oткрытым местoм. Скoрoсть ветра над акватoриями крупных рек и oзёр, а также на вершинах хoлмoв на 2-5 м/с выше, чем в oбычных услoвиях.
Атмoсфернoе давление в разных тoчках местнoсти мoжет значительнo oтличаться oт давления на метеoстанции, в зависимoсти oт услoвий рельефа (при пoдъёме на 10 м давление пoнижается примернo на 1 мм рт.ст.).